• In Czech Republic
  • List of Countries
  • For 7 days
  • Water Temperature
  • Satellite Maps
  • Weather Map
  • Weather Widgets
  • user-avatar
    Login

    Hourly Weather Badalona

    Today, 26 September, Wednesday

    Time Temperature Precipitation Wind Pressure Humidity
    00:00 +20°C° 0 mm 6 mps 767 mmHg 75%
    01:00 +20°C° 0 mm 6 mps 767 mmHg 74%
    02:00 +20°C° 0 mm 6 mps 767 mmHg 73%
    03:00 +19°C° 0 mm 6 mps 767 mmHg 72%
    04:00 +18°C° 0 mm 7 mps 767 mmHg 72%
    05:00 +18°C° 0 mm 7 mps 767 mmHg 72%
    06:00 +18°C° 0 mm 7 mps 768 mmHg 72%
    07:00 +21°C° 0 mm 7 mps 768 mmHg 66%
    08:00 +22°C° 0 mm 8 mps 768 mmHg 59%
    09:00 +24°C° 0 mm 8 mps 769 mmHg 53%
    10:00 +24°C° 0 mm 7 mps 769 mmHg 49%
    11:00 +26°C° 0 mm 7 mps 769 mmHg 46%
    12:00 +27°C° 0 mm 7 mps 769 mmHg 42%
    13:00 +27°C° 0 mm 6 mps 768 mmHg 43%
    14:00 +27°C° 0 mm 6 mps 768 mmHg 44%
    15:00 +27°C° 0 mm 6 mps 768 mmHg 45%
    16:00 +26°C° 0 mm 6 mps 768 mmHg 53%
    17:00 +23°C° 0 mm 5 mps 768 mmHg 60%
    18:00 +22°C° 0 mm 5 mps 768 mmHg 68%
    19:00 +21°C° 0 mm 5 mps 769 mmHg 71%
    20:00 +21°C° 0 mm 4 mps 769 mmHg 73%
    21:00 +20°C° 0 mm 4 mps 770 mmHg 75%
    22:00 +20°C° 0 mm 4 mps 770 mmHg 76%
    23:00 +20°C° 0 mm 3 mps 769 mmHg 77%

    Tomorrow, 27 September, Thursday

    Time Temperature Precipitation Wind Pressure Humidity
    00:00 +20°C° 0 mm 3 mps 769 mmHg 78%
    01:00 +19°C° 0 mm 3 mps 769 mmHg 79%
    02:00 +19°C° 0 mm 3 mps 769 mmHg 80%
    03:00 +19°C° 0 mm 3 mps 769 mmHg 80%
    04:00 +18°C° 0 mm 3 mps 769 mmHg 81%
    05:00 +18°C° 0 mm 2 mps 769 mmHg 81%
    06:00 +18°C° 0 mm 2 mps 768 mmHg 82%
    07:00 +20°C° 0 mm 2 mps 769 mmHg 72%
    08:00 +23°C° 0 mm 2 mps 769 mmHg 63%
    09:00 +25°C° 0 mm 2 mps 769 mmHg 53%
    10:00 +26°C° 0 mm 2 mps 768 mmHg 48%
    11:00 +27°C° 0 mm 2 mps 768 mmHg 43%
    12:00 +29°C° 0 mm 2 mps 767 mmHg 37%
    13:00 +29°C° 0 mm 2 mps 767 mmHg 38%
    14:00 +29°C° 0 mm 2 mps 766 mmHg 38%
    15:00 +29°C° 0 mm 3 mps 766 mmHg 38%
    16:00 +27°C° 0 mm 2 mps 766 mmHg 46%
    17:00 +26°C° 0 mm 2 mps 765 mmHg 54%
    18:00 +24°C° 0 mm 2 mps 765 mmHg 62%
    19:00 +23°C° 0 mm 2 mps 765 mmHg 65%
    20:00 +23°C° 0 mm 2 mps 765 mmHg 69%
    21:00 +22°C° 0 mm 1 mps 765 mmHg 72%
    22:00 +21°C° 0 mm 2 mps 765 mmHg 73%
    23:00 +21°C° 0 mm 2 mps 765 mmHg 73%

    Day after tomorrow, 28 September, Friday

    Time Temperature Precipitation Wind Pressure Humidity
    00:00 +21°C° 0 mm 2 mps 764 mmHg 74%
    01:00 +20°C° 0 mm 2 mps 764 mmHg 73%
    02:00 +20°C° 0 mm 2 mps 763 mmHg 72%
    03:00 +20°C° 0 mm 2 mps 763 mmHg 71%
    04:00 +20°C° 0 mm 2 mps 762 mmHg 70%
    05:00 +20°C° 0 mm 2 mps 762 mmHg 68%
    06:00 +20°C° 0 mm 2 mps 762 mmHg 66%
    07:00 +23°C° 0 mm 2 mps 762 mmHg 59%
    08:00 +25°C° 0 mm 1 mps 762 mmHg 52%
    09:00 +27°C° 0 mm 1 mps 762 mmHg 45%
    10:00 +28°C° 0 mm 2 mps 761 mmHg 42%
    11:00 +30°C° 0 mm 3 mps 761 mmHg 39%
    12:00 +31°C° 0 mm 3 mps 761 mmHg 37%
    13:00 +32°C° 0 mm 4 mps 760 mmHg 37%
    14:00 +32°C° 0 mm 4 mps 759 mmHg 37%
    15:00 +32°C° 0 mm 4 mps 759 mmHg 38%
    16:00 +30°C° 0 mm 4 mps 758 mmHg 44%
    17:00 +28°C° 0 mm 4 mps 758 mmHg 50%
    18:00 +26°C° 0 mm 4 mps 758 mmHg 56%
    19:00 +26°C° 0 mm 3 mps 758 mmHg 59%
    20:00 +25°C° 0 mm 3 mps 758 mmHg 61%
    21:00 +25°C° 0 mm 3 mps 759 mmHg 63%
    22:00 +24°C° 0 mm 3 mps 758 mmHg 63%
    23:00 +24°C° 0 mm 3 mps 758 mmHg 64%

    29 September, Saturday

    Time Temperature Precipitation Wind Pressure Humidity
    00:00 +24°C° 0 mm 3 mps 758 mmHg 64%
    01:00 +22°C° 0 mm 3 mps 758 mmHg 63%
    02:00 +22°C° 0 mm 3 mps 757 mmHg 63%
    03:00 +22°C° 0 mm 3 mps 757 mmHg 62%
    04:00 +23°C° 0 mm 2 mps 757 mmHg 61%
    05:00 +23°C° 0 mm 2 mps 757 mmHg 60%
    06:00 +23°C° 0 mm 2 mps 757 mmHg 59%
    07:00 +25°C° 0 mm 2 mps 757 mmHg 53%
    08:00 +27°C° 0 mm 1 mps 758 mmHg 47%
    09:00 +29°C° 0 mm 1 mps 758 mmHg 42%
    10:00 +30°C° 0 mm 2 mps 758 mmHg 38%
    11:00 +31°C° 0 mm 2 mps 757 mmHg 35%
    12:00 +33°C° 0 mm 3 mps 757 mmHg 32%
    13:00 +33°C° 0 mm 3 mps 757 mmHg 32%
    14:00 +33°C° 0 mm 4 mps 757 mmHg 33%
    15:00 +32°C° 0 mm 4 mps 756 mmHg 33%
    16:00 +30°C° 0 mm 4 mps 756 mmHg 39%
    17:00 +28°C° 0 mm 4 mps 756 mmHg 44%
    18:00 +26°C° 0 mm 4 mps 756 mmHg 50%
    19:00 +26°C° 0 mm 4 mps 757 mmHg 53%
    20:00 +25°C° 0 mm 3 mps 757 mmHg 55%
    21:00 +25°C° 0 mm 3 mps 757 mmHg 58%
    22:00 +24°C° 0 mm 3 mps 757 mmHg 59%
    23:00 +24°C° 0 mm 3 mps 757 mmHg 59%

    30 September, Sunday

    Time Temperature Precipitation Wind Pressure Humidity
    00:00 +24°C° 0 mm 3 mps 757 mmHg 60%
    01:00 +22°C° 0 mm 3 mps 757 mmHg 60%
    02:00 +22°C° 0 mm 3 mps 757 mmHg 61%
    03:00 +23°C° 0 mm 2 mps 756 mmHg 62%
    04:00 +21°C° 0 mm 2 mps 756 mmHg 62%
    05:00 +21°C° 0 mm 2 mps 757 mmHg 62%
    06:00 +21°C° 0 mm 2 mps 757 mmHg 62%
    07:00 +24°C° 0 mm 2 mps 757 mmHg 57%
    08:00 +25°C° 0 mm 2 mps 757 mmHg 51%
    09:00 +27°C° 0 mm 2 mps 757 mmHg 45%
    10:00 +28°C° 0 mm 2 mps 757 mmHg 42%
    11:00 +29°C° 0 mm 2 mps 757 mmHg 40%
    12:00 +30°C° 0 mm 3 mps 757 mmHg 38%
    13:00 +30°C° 0 mm 3 mps 757 mmHg 40%
    14:00 +30°C° 0 mm 3 mps 756 mmHg 41%
    15:00 +30°C° 0 mm 3 mps 756 mmHg 43%
    16:00 +28°C° 0 mm 3 mps 756 mmHg 50%
    17:00 +27°C° 0 mm 3 mps 756 mmHg 57%
    18:00 +25°C° 0 mm 2 mps 756 mmHg 64%
    19:00 +25°C° 0 mm 2 mps 757 mmHg 66%
    20:00 +24°C° 0 mm 2 mps 757 mmHg 69%
    21:00 +24°C° 0 mm 2 mps 757 mmHg 72%
    22:00 +23°C° 0 mm 2 mps 757 mmHg 72%
    23:00 +23°C° 0 mm 2 mps 757 mmHg 73%

    1 October, Monday

    Time Temperature Precipitation Wind Pressure Humidity
    00:00 +23°C° 0 mm 2 mps 756 mmHg 74%
    01:00 +23°C° 0 mm 2 mps 756 mmHg 75%
    02:00 +21°C° 0 mm 2 mps 756 mmHg 76%
    03:00 +21°C° 0 mm 2 mps 756 mmHg 78%
    04:00 +22°C° 0.1 mm 1 mps 756 mmHg 78%
    05:00 +22°C° 0.1 mm 1 mps 756 mmHg 78%
    06:00 +22°C° 0.1 mm 1 mps 756 mmHg 79%
    07:00 +23°C° 0.4 mm 2 mps 756 mmHg 75%
    08:00 +24°C° 0.4 mm 2 mps 756 mmHg 72%
    09:00 +25°C° 0.4 mm 2 mps 756 mmHg 68%
    10:00 +25°C° 0.5 mm 2 mps 756 mmHg 69%
    11:00 +25°C° 0.5 mm 3 mps 756 mmHg 70%
    12:00 +25°C° 0.5 mm 3 mps 756 mmHg 71%
    13:00 +25°C° 0.4 mm 3 mps 756 mmHg 70%
    14:00 +26°C° 0.4 mm 3 mps 756 mmHg 69%
    15:00 +26°C° 0.4 mm 3 mps 756 mmHg 68%
    16:00 +25°C° 0.5 mm 3 mps 756 mmHg 72%
    17:00 +24°C° 0.5 mm 3 mps 756 mmHg 76%
    18:00 +22°C° 0.5 mm 3 mps 757 mmHg 79%
    19:00 +22°C° 1.8 mm 3 mps 757 mmHg 80%
    20:00 +22°C° 1.8 mm 3 mps 758 mmHg 81%
    21:00 +22°C° 1.8 mm 4 mps 758 mmHg 82%
    22:00 +21°C° 2.1 mm 4 mps 758 mmHg 83%
    23:00 +21°C° 2.1 mm 4 mps 758 mmHg 84%
    Show more